Temp
9 9 10 11 10 10 9 10 10 10 10 11 11 11 11 11 11 11 10 10 10 9 9 9 9 9 9 9 8 8 8 8
9 9 9 10 10 10 10 9 9 10 10 10 10 11 11 11 11 11 11 10 10 10 9 9 9 9 9 9 8 8 8 8
9 9 9 9 9 9 10 10 9 10 10 10 9 10 10 11 11 11 11 11 10 10 10 10 9 9 9 9 9 9 9 8
8 8 9 9 9 9 9 9 9 10 10 10 10 9 10 10 11 11 11 11 11 10 10 10 10 9 9 9 8 8 8 8
6 7 8 8 9 9 9 9 9 9 10 10 10 10 10 11 11 11 11 11 11 10 10 10 10 10 10 9 8 8 8 8
4 7 8 8 8 9 8 8 9 9 9 9 9 9 10 10 10 10 10 10 11 11 10 10 10 10 10 9 9 8 8 8
5 6 7 7 7 8 8 8 9 9 9 9 9 9 9 10 10 10 10 10 10 10 10 10 10 9 9 9 9 9 8 8
5 5 6 7 7 7 8 8 8 9 9 9 9 10 10 10 10 10 10 10 10 9 9 9 9 9 9 9 9 9 8 8
4 5 6 6 7 7 7 8 8 9 9 9 9 9 10 10 10 10 10 10 10 10 9 8 8 8 8 8 8 8 8 8
1 4 5 6 6 7 7 7 8 8 8 8 9 9 10 10 10 9 10 10 10 10 10 8 7 7 8 8 8 7 7 6
-2 0 1 3 5 6 7 7 7 8 8 8 8 9 9 9 9 9 9 9 9 10 9 8 8 7 7 7 7 6 6 5
-3 -2 -1 0 1 2 4 6 6 6 6 6 7 8 7 8 8 8 8 8 9 8 8 8 7 7 7 6 7 6 4 5
-4 -3 -2 -2 -1 -1 2 2 2 3 3 5 6 6 5 4 5 5 6 5 6 6 5 6 7 6 7 7 6 6 5 4
-6 -6 -4 -3 -3 -3 -2 -1 1 1 2 3 4 4 4 3 5 5 5 5 5 5 5 6 6 6 7 7 7 5 5 4
-6 -5 -5 -5 -4 -4 -3 -3 -3 -2 -2 -1 -1 0 2 3 3 3 3 3 3 3 4 5 5 6 6 6 6 5 6 4
-7 -6 -6 -6 -5 -5 -5 -5 -4 -4 -4 -3 -3 -2 -1 -1 -0 -0 0 1 2 2 3 3 3 4 4 4 4 4 4 4
-6 -6 -6 -6 -6 -6 -6 -5 -5 -4 -4 -4 -4 -3 -3 -2 -2 -1 -1 -0 0 1 1 2 3 3 3 4 4 4 4 4
-6 -6 -6 -6 -5 -5 -5 -5 -4 -4 -4 -5 -5 -5 -3 -3 -3 -3 -2 -2 -1 -1 -0 0 1 2 2 3 3 3 3 3
-6 -6 -6 -6 -6 -5 -5 -5 -5 -4 -4 -3 -3 -3 -3 -3 -3 -3 -3 -3 -3 -2 -1 -1 -0 0 1 1 1 2 2 2
Height
3106 3108 3112 3117 3122 3125 3132 3136 3140 3144 3149 3152 3156 3161 3165 3168 3170 3173 3176 3178 3180 3181 3183 3185 3186 3187 3189 3191 3193 3194 3195 3196
3099 3103 3105 3110 3114 3120 3123 3128 3132 3136 3139 3143 3147 3153 3158 3161 3165 3169 3171 3173 3175 3176 3179 3181 3181 3182 3185 3187 3188 3189 3190 3191
3086 3094 3098 3103 3107 3113 3117 3120 3125 3130 3133 3137 3141 3146 3150 3154 3158 3163 3166 3168 3170 3172 3174 3176 3178 3179 3180 3181 3182 3184 3186 3187
3077 3085 3090 3095 3099 3105 3110 3114 3119 3123 3126 3130 3134 3136 3139 3143 3149 3154 3158 3161 3164 3166 3168 3170 3172 3173 3175 3177 3178 3179 3180 3182
3068 3074 3080 3085 3091 3097 3103 3108 3113 3116 3120 3124 3126 3130 3133 3138 3144 3149 3151 3154 3157 3160 3162 3164 3167 3169 3170 3173 3174 3175 3176 3176
3059 3066 3072 3077 3081 3086 3092 3099 3105 3109 3113 3117 3120 3123 3127 3132 3136 3138 3142 3146 3149 3151 3154 3157 3159 3162 3165 3166 3168 3170 3170 3172
3052 3058 3066 3069 3074 3079 3084 3088 3095 3100 3104 3109 3112 3117 3122 3124 3129 3132 3134 3137 3139 3142 3145 3147 3150 3152 3155 3158 3160 3162 3164 3164
3046 3050 3056 3062 3067 3070 3076 3082 3087 3091 3095 3100 3105 3110 3114 3117 3120 3123 3125 3128 3131 3134 3135 3136 3139 3142 3145 3148 3150 3153 3155 3155
3040 3043 3048 3054 3060 3064 3068 3073 3077 3082 3086 3091 3095 3098 3102 3105 3108 3112 3114 3116 3120 3121 3122 3125 3129 3131 3134 3136 3138 3141 3145 3144
3038 3038 3042 3047 3052 3057 3060 3064 3067 3071 3075 3079 3084 3087 3090 3093 3096 3098 3101 3103 3107 3109 3111 3114 3117 3119 3122 3124 3125 3127 3130 3132
3038 3037 3037 3040 3043 3047 3051 3055 3057 3060 3064 3069 3072 3075 3079 3082 3084 3086 3088 3091 3093 3096 3099 3102 3106 3110 3112 3112 3112 3114 3116 3118
3041 3039 3037 3037 3038 3041 3042 3044 3048 3052 3055 3057 3060 3064 3067 3070 3073 3075 3078 3079 3082 3085 3087 3091 3096 3099 3103 3103 3104 3104 3104 3106
3042 3042 3041 3038 3035 3034 3038 3039 3041 3045 3047 3048 3051 3054 3057 3060 3063 3066 3069 3072 3073 3075 3078 3081 3085 3088 3090 3092 3094 3093 3095 3102
3042 3044 3042 3039 3037 3036 3032 3033 3037 3039 3040 3041 3044 3046 3049 3052 3054 3057 3060 3062 3063 3065 3068 3070 3073 3076 3079 3079 3081 3080 3084 3086
3045 3045 3043 3041 3037 3035 3036 3036 3035 3036 3036 3038 3039 3041 3043 3046 3045 3048 3049 3052 3053 3055 3058 3060 3062 3064 3067 3069 3069 3071 3072 3077
3051 3046 3041 3039 3039 3038 3035 3035 3034 3035 3036 3037 3036 3036 3035 3038 3040 3041 3042 3043 3042 3044 3047 3049 3050 3052 3054 3057 3059 3061 3063 3066
3048 3046 3045 3041 3037 3035 3035 3033 3030 3031 3031 3031 3033 3034 3034 3033 3031 3033 3034 3035 3036 3036 3038 3039 3041 3043 3045 3048 3050 3052 3054 3056
3044 3042 3040 3037 3034 3033 3032 3031 3028 3026 3026 3027 3026 3026 3025 3025 3025 3026 3026 3026 3027 3028 3030 3032 3033 3034 3036 3038 3040 3041 3043 3045
3041 3038 3035 3031 3029 3028 3025 3024 3021 3021 3021 3019 3018 3018 3018 3017 3017 3015 3018 3018 3018 3019 3021 3022 3023 3025 3026 3027 3029 3030 3032 3034
Wind_Speed
37 35 37 41 39 38 33 34 35 38 39 38 36 35 34 34 33 30 28 26 27 28 28 27 27 27 25 23 22 21 21 21
43 38 37 44 41 41 39 36 37 38 40 42 41 40 37 38 36 33 31 29 29 30 29 29 30 29 25 25 24 24 23 22
42 44 42 44 44 42 41 40 37 38 40 39 40 42 42 40 39 37 34 33 31 30 28 29 30 31 30 28 27 26 25 25
48 41 46 43 44 46 44 42 39 39 39 40 38 41 46 45 43 41 39 37 35 33 31 31 32 33 33 31 31 31 29 27
40 41 45 44 42 44 46 44 43 42 41 38 37 38 39 42 42 40 41 41 39 38 36 34 33 34 34 34 34 34 34 34
28 40 43 42 43 44 45 41 41 41 41 40 40 40 40 36 34 35 36 37 41 43 41 39 38 36 36 37 37 37 38 38
25 28 44 39 40 45 45 44 44 42 40 38 39 39 37 35 34 33 33 36 38 39 41 44 43 42 40 39 39 41 40 40
23 29 33 48 42 43 45 47 44 45 44 42 40 39 39 38 39 39 38 38 38 39 42 45 44 46 45 42 41 41 43 44
22 25 34 38 46 46 45 45 45 46 47 44 43 45 45 45 45 47 46 46 45 47 46 45 43 46 45 47 46 43 48 48
13 20 27 32 39 44 42 41 42 42 43 42 44 42 44 48 52 53 55 55 53 52 51 45 44 42 41 48 52 49 52 52
21 18 15 21 29 34 36 38 38 42 42 44 44 46 46 47 48 49 51 55 57 55 53 46 46 45 47 48 47 46 56 49
18 19 20 19 18 19 24 32 35 34 34 37 43 44 41 43 45 45 40 44 49 51 48 42 46 47 48 52 55 49 45 52
16 15 15 17 20 23 20 21 26 25 29 32 34 38 36 34 33 31 30 30 36 35 37 42 43 45 49 56 57 59 59 48
6 8 10 13 15 16 21 21 21 22 23 23 26 25 34 35 29 38 36 37 33 37 41 43 42 44 45 38 42 40 38 41
24 9 3 7 10 13 10 12 14 15 16 17 17 17 20 27 29 35 37 36 34 37 35 39 42 43 39 38 36 38 38 37
16 19 23 24 11 13 11 8 6 5 4 5 8 11 15 16 19 19 20 21 24 25 27 29 30 31 33 33 34 35 36 38
18 18 19 20 20 21 20 22 22 17 22 14 16 14 12 15 18 20 19 20 21 23 25 27 29 31 31 33 34 34 34 36
22 22 23 22 23 22 22 24 22 22 25 25 22 20 26 25 22 23 21 21 23 25 26 27 28 29 31 32 33 34 37 39
25 26 25 26 26 27 28 28 28 28 27 29 27 27 25 25 26 34 33 37 27 26 31 33 31 33 34 34 36 37 38 39
Wind_Direction
224 221 215 210 212 206 212 221 225 228 229 229 231 229 227 226 227 227 228 230 231 232 230 226 229 233 235 237 238 240 242 244
222 228 225 208 212 212 210 216 218 219 224 228 229 229 229 230 230 231 231 232 233 234 233 232 232 234 234 234 234 234 235 237
220 222 226 220 220 218 215 215 215 218 221 226 229 230 231 232 234 234 236 237 238 242 241 239 239 242 238 234 233 233 235 235
227 225 224 229 226 224 220 218 215 217 221 226 229 229 229 230 232 233 235 239 242 244 246 244 243 243 246 244 239 235 234 233
221 222 219 222 227 223 224 219 219 222 225 228 230 236 235 234 236 237 239 241 244 247 249 250 251 251 251 252 249 246 242 235
230 214 218 218 223 223 224 226 226 230 234 234 234 233 233 235 234 236 239 242 246 247 249 251 252 253 253 252 252 251 248 248
231 223 219 215 220 224 228 226 229 233 235 235 236 237 237 238 237 235 240 244 244 247 249 249 249 250 250 250 250 252 251 250
225 219 220 223 225 222 223 229 230 231 234 235 239 240 242 242 244 244 243 248 249 250 252 250 249 248 250 250 249 251 251 250
209 217 219 221 223 223 224 227 232 235 236 235 236 239 242 243 245 249 247 246 246 246 249 252 252 252 248 248 250 247 250 249
150 193 212 219 224 227 229 229 229 234 236 235 235 234 236 239 239 243 245 246 248 249 249 249 250 250 245 243 246 248 250 253
109 125 165 198 209 216 219 226 227 228 231 229 230 230 234 233 234 239 243 244 245 246 247 249 246 250 251 246 245 248 249 258
102 113 125 138 164 194 205 212 217 219 226 232 233 233 237 239 241 244 251 250 250 251 250 249 243 251 256 262 263 257 274 268
113 117 126 139 139 136 168 197 204 208 219 226 234 238 239 244 242 246 244 251 249 256 251 256 252 252 261 262 271 258 271 263
71 127 151 147 136 132 140 148 174 182 200 206 212 213 228 237 230 231 237 239 233 242 245 249 255 256 264 267 262 264 250 269
10 308 257 197 165 150 147 142 143 153 163 175 185 199 213 230 238 240 241 243 247 250 248 247 249 249 252 248 257 258 258 260
356 358 353 330 315 315 276 266 234 217 258 234 203 193 191 205 218 223 227 232 234 234 239 240 240 241 246 249 253 255 256 259
338 337 329 334 336 331 333 328 319 296 261 268 275 268 259 235 218 223 233 236 239 241 239 240 243 243 243 244 246 251 256 262
324 319 318 316 313 312 305 308 307 309 308 304 301 294 275 265 271 262 252 250 253 249 251 249 247 248 249 251 256 264 271 273
305 307 305 304 303 301 299 297 297 299 300 297 294 291 285 280 291 285 282 265 262 272 266 261 259 258 258 260 263 267 268 268